Weather reports worldwide

Advertisment
Bergerac, France (7530): temperature & dewpoint: 18.03.2019 17:00:00 - 24.03.2019 17:00:00 (CET)Bergerac, France (7530): temperature 5cm: 18.03.2019 17:00:00 - 24.03.2019 17:00:00 (CET)Bergerac, France (7530): temperature -20cm & temperature -100cm: 18.03.2019 17:00:00 - 24.03.2019 17:00:00 (CET)Bergerac, France (7530): wind speed & gusts: 18.03.2019 17:00:00 - 24.03.2019 17:00:00 (CET)Bergerac, France (7530): wind direction: 18.03.2019 17:00:00 - 24.03.2019 17:00:00 (CET)Bergerac, France (7530): reduced air pressure: 18.03.2019 17:00:00 - 24.03.2019 17:00:00 (CET)Bergerac, France (7530): visibility: 18.03.2019 17:00:00 - 24.03.2019 17:00:00 (CET)Bergerac, France (7530): sunshine duration: 18.03.2019 17:00:00 - 24.03.2019 17:00:00 (CET)Bergerac, France (7530): precipitation: 18.03.2019 17:00:00 - 24.03.2019 17:00:00 (CET)
Date & Time tt [°C] td [°C] tt 5cm [°C] tt -20cm [°C] tt -100cm [°C] ff [km/h] ff [kn] fx [km/h] fx [kn] dd ppp [hPa] vv [km] sd [min] rr [mm]
24.03.2019 17:00:00 20,0 4,9 23,0 10,6 10,3 18 10 35 19 NNW 1024,1 52 60 0,0
24.03.2019 16:00:00 20,8 3,9 25,1 10,4 10,3 20 11 38 20 NW 1024,2 28 60 0,0
24.03.2019 15:00:00 20,9 4,0 25,6 10,2 10,3 20 11 33 18 NW 1024,4 19 60 0,0
24.03.2019 14:00:00 20,7 4,3 26,4 10,0 10,3 17 9 28 15 NW 1025,0 20 60 0,0
24.03.2019 13:00:00 20,5 3,7 27,1 9,8 10,3 16 9 27 15 N 1025,7 60 60 0,0
24.03.2019 12:00:00 19,6 6,0 25,6 9,7 10,3 4 2 10 6 WSW 1026,0 17 60 0,0
24.03.2019 11:00:00 16,2 7,1 22,3 9,8 10,3 5 3 9 5 WSW 1026,4 9 60 0,0
24.03.2019 10:00:00 12,3 6,3 16,6 9,8 10,3 3 1 9 5 WNW 1026,5 20 60 0,0
24.03.2019 09:00:00 8,8 5,7 4,6 9,9 10,3 3 1 7 4 NE 1026,5 30 60 0,0
24.03.2019 08:00:00 2,8 1,9 -2,3 10,1 10,3 4 2 6 3 E 1026,4 20 36 0,0
24.03.2019 07:00:00 1,2 0,6 -2,3 10,3 10,3 2 1 6 3 E 1026,2 29 0 0,0
24.03.2019 06:00:00 1,0 0,1 -2,0 10,4 10,3 4 2 8 4 ENE 1026,0 32 0 0,0
24.03.2019 05:00:00 2,0 0,8 -1,5 10,5 10,3 2 1 5 3 SE 1025,5 27 0 0,0
24.03.2019 04:00:00 3,0 1,4 -0,9 10,6 10,3 3 2 6 3 NE 1025,4 33 0 0,0
24.03.2019 03:00:00 4,6 2,3 -0,3 10,7 10,3 3 2 14 8 S 1025,2 41 0 0,0
24.03.2019 02:00:00 5,0 2,0 0,5 10,8 10,3 3 2 8 4 S 1025,3 39 0 0,0
24.03.2019 01:00:00 8,3 2,9 2,1 10,9 10,3 3 2 8 5 NW 1025,3 51 0 0,0
24.03.2019 00:00:00 8,4 2,8 2,4 11,0 10,3 2 1 11 6 WNW 1025,5 52 0 0,0
23.03.2019 23:00:00 7,4 2,5 2,4 11,0 10,3 5 3 10 5 SSW 1026,0 53 0 0,0
23.03.2019 22:00:00 11,0 3,3 3,7 11,1 10,3 7 4 10 5 NNW 1026,0 60 0 0,0
23.03.2019 21:00:00 9,9 3,8 4,6 11,0 10,3 5 3 8 4 SW 1025,8 54 0 0,0
23.03.2019 20:00:00 13,6 4,7 5,7 10,9 10,3 6 3 12 7 SW 1025,2 44 0 0,0
23.03.2019 19:00:00 18,2 3,3 10,7 10,8 10,3 10 5 16 8 NNW 1024,7 60 14 0,0
23.03.2019 18:00:00 20,1 5,3 19,1 10,6 10,3 9 5 18 10 NNW 1024,4 60 30 0,0
23.03.2019 17:00:00 22,8 4,3 27,9 10,3 10,3 8 4 19 10 NW 1024,6 60 60 0,0
23.03.2019 16:00:00 23,3 2,7 28,8 10,0 10,3 5 3 17 9 W 1025,0 57 60 0,0
23.03.2019 15:00:00 22,8 7,3 27,8 9,8 10,3 5 3 21 11 W 1025,7 18 60 0,0
23.03.2019 14:00:00 21,9 7,7 29,1 9,6 10,3 7 4 15 8 W 1026,5 19 60 0,0
23.03.2019 13:00:00 20,5 7,5 26,8 9,4 10,3 5 3 10 5 SW 1027,4 46 60 0,0
23.03.2019 12:00:00 17,8 6,6 24,6 9,3 10,3 4 2 9 5 N 1028,0 17 60 0,0
23.03.2019 11:00:00 15,1 6,9 19,3 9,4 10,3 3 1 11 6 N 1028,6 18 53 0,0
23.03.2019 10:00:00 11,6 5,7 14,0 9,4 10,3 4 2 12 7 NNE 1028,7 39 60 0,0
23.03.2019 09:00:00 7,9 4,7 4,6 9,5 10,3 6 4 9 5 E 1028,6 36 60 0,0
23.03.2019 08:00:00 2,6 1,9 -2,6 9,7 10,3 5 3 8 5 ENE 1028,6 20 35 0,0
23.03.2019 07:00:00 -0,1 -0,8 -2,7 9,8 10,3 3 2 9 5 E 1028,3 17 0 0,0
23.03.2019 06:00:00 0,9 0,0 -2,1 9,9 10,3 5 3 11 6 NE 1028,0 27 0 0,0
23.03.2019 05:00:00 1,3 0,7 -1,6 10,0 10,3 8 4 9 5 ENE 1027,9 26 0 0,0
23.03.2019 04:00:00 1,3 0,4 -1,8 10,2 10,3 5 3 9 5 ENE 1028,1 20 0 0,0
23.03.2019 03:00:00 2,0 1,0 -1,3 10,3 10,3 4 2 8 5 NNE 1028,3 28 0 0,0
23.03.2019 02:00:00 2,8 2,1 -0,6 10,4 10,3 5 3 9 5 E 1028,4 27 0 0,0
23.03.2019 01:00:00 2,9 1,3 -0,4 10,5 10,3 5 3 11 6 E 1028,4 26 0 0,0
23.03.2019 00:00:00 4,8 3,3 -0,2 10,6 10,3 3 1 5 3 ESE 1028,6 31 0 0,0
22.03.2019 23:00:00 5,5 2,5 0,5 10,6 10,3 2 1 7 4 E 1028,5 18 0 0,0
22.03.2019 22:00:00 7,0 3,2 1,2 10,6 10,3 0 0 6 3 N 1028,1 31 0 0,0
22.03.2019 21:00:00 9,1 3,7 2,8 10,6 10,3 5 3 8 4 SW 1027,5 18 0 0,0
22.03.2019 20:00:00 11,7 4,2 4,0 10,5 10,3 6 4 11 6 SW 1027,2 12 0 0,0
22.03.2019 19:00:00 17,7 2,4 9,7 10,3 10,3 8 4 9 5 W 1026,8 60 50 0,0
22.03.2019 18:00:00 19,8 4,3 23,3 10,1 10,3 5 3 15 8 NNW 1026,5 59 60 0,0
22.03.2019 17:00:00 20,9 2,7 25,8 9,9 10,3 4 2 14 8 W 1026,6 20 60 0,0
22.03.2019 16:00:00 20,4 3,6 26,8 9,6 10,3 7 4 16 9 W 1027,2 18 60 0,0
22.03.2019 15:00:00 20,1 3,7 27,4 9,4 10,3 6 3 16 8 WNW 1027,6 14 60 0,0
22.03.2019 14:00:00 19,6 3,3 27,0 9,1 10,3 4 2 14 7 SW 1028,4 54 60 0,0
22.03.2019 13:00:00 18,2 4,4 26,2 9,0 10,3 4 2 10 5 N 1029,0 19 60 0,0
22.03.2019 12:00:00 16,8 4,8 23,4 8,9 10,3 4 2 13 7 SSE 1029,4 46 60 0,0
22.03.2019 11:00:00 13,8 5,2 19,5 8,9 10,3 6 3 13 7 NNE 1029,9 20 60 0,0
22.03.2019 10:00:00 10,3 3,3 12,4 9,0 10,3 4 2 13 7 NE 1030,0 20 60 0,0
22.03.2019 09:00:00 5,6 2,6 2,0 9,1 10,3 5 3 10 6 ENE 1030,1 34 60 0,0
22.03.2019 08:00:00 0,7 -0,2 -3,5 9,3 10,3 5 3 11 6 E 1030,0 19 36 0,0
22.03.2019 07:00:00 -1,6 -2,2 -3,7 9,4 10,3 6 3 10 5 ENE 1029,5 15 0 0,0
22.03.2019 06:00:00 -1,5 -2,1 -3,8 9,6 10,3 7 4 9 5 ENE 1029,2 16 0 0,0
22.03.2019 05:00:00 -1,3 -2,0 -3,6 9,7 10,3 8 4 10 5 ENE 1029,2 18 0 0,0
22.03.2019 04:00:00 -0,8 -1,5 -3,3 9,9 10,4 7 4 9 5 E 1029,2 19 0 0,0
22.03.2019 03:00:00 -0,4 -1,5 -3,2 9,9 10,3 7 4 12 6 ENE 1029,2 26 0 0,0
22.03.2019 02:00:00 0,4 -0,7 -2,6 10,1 10,3 9 5 11 6 ENE 1029,1 26 0 0,0
22.03.2019 01:00:00 1,2 0,0 -2,8 10,1 10,3 6 4 10 5 ENE 1029,1 20 0 0,0
22.03.2019 00:00:00 2,0 0,4 -2,0 10,3 10,4 9 5 11 6 NE 1029,4 29 0 0,0
21.03.2019 23:00:00 2,9 1,6 -1,6 10,4 10,4 4 2 7 4 E 1029,1 20 0 0,0
21.03.2019 22:00:00 4,4 1,9 -1,0 10,4 10,4 5 3 6 3 E 1028,9 24 0 0,0
21.03.2019 21:00:00 6,3 3,1 -0,1 10,3 10,3 3 1 5 3 E 1028,6 53 0 0,0
21.03.2019 20:00:00 8,4 2,8 1,5 10,3 10,4 3 1 7 4 S 1028,2 50 0 0,0
21.03.2019 19:00:00 15,1 1,2 5,9 10,1 10,3 4 2 11 6 SSW 1027,9 60 49 0,0
21.03.2019 18:00:00 17,0 1,8 20,5 9,9 10,4 5 3 14 8 SSW 1027,6 58 60 0,0
21.03.2019 17:00:00 17,4 1,4 23,1 9,7 10,4 5 3 21 11 S 1027,6 48 60 0,0
21.03.2019 16:00:00 18,1 2,0 24,8 9,4 10,3 5 3 18 10 WSW 1027,9 20 60 0,0
21.03.2019 15:00:00 16,9 2,1 24,8 9,2 10,4 8 4 16 9 NW 1028,6 28 60 0,0
21.03.2019 14:00:00 16,0 1,3 24,0 9,0 10,4 4 2 15 8 NE 1029,2 20 60 0,0
21.03.2019 13:00:00 15,5 2,3 22,7 8,9 10,3 5 3 14 8 S 1029,9 20 60 0,0
21.03.2019 12:00:00 14,2 0,4 20,9 8,8 10,3 3 2 14 7 W 1030,3 42 60 0,0
21.03.2019 11:00:00 12,5 2,9 17,9 8,9 10,4 7 4 14 8 ENE 1030,8 50 60 0,0
21.03.2019 10:00:00 9,2 2,7 14,1 9,0 10,4 5 3 10 6 E 1031,1 20 60 0,0
21.03.2019 09:00:00 5,8 3,0 2,6 9,1 10,4 0 0 5 3 N 1031,4 20 60 0,0
21.03.2019 08:00:00 0,7 0,1 -5,0 9,2 10,4 4 2 5 3 ENE 1031,4 19 36 0,0
21.03.2019 07:00:00 -1,5 -2,2 -5,1 9,4 10,4 4 2 6 3 E 1031,2 18 0 0,0
21.03.2019 06:00:00 -1,6 -2,3 -4,9 9,5 10,4 3 2 5 3 NE 1031,0 18 0 0,0
21.03.2019 05:00:00 -0,6 -1,3 -4,3 9,6 10,3 2 1 5 3 ENE 1030,7 25 0 0,0
21.03.2019 04:00:00 -0,2 -1,2 -3,7 9,8 10,4 5 3 8 4 ENE 1030,5 34 0 0,0
21.03.2019 03:00:00 0,5 -1,0 -2,9 9,9 10,4 3 1 7 4 SSE 1031,0 41 0 0,0
21.03.2019 02:00:00 1,3 -1,1 -2,1 10,0 10,4 4 2 8 5 SW 1031,5 54 0 0,0
21.03.2019 01:00:00 1,9 -1,0 -2,0 10,1 10,4 4 2 9 5 ENE 1031,7 53 0 0,0
21.03.2019 00:00:00 3,1 -0,4 -1,3 10,1 10,4 5 3 6 3 S 1031,7 19 0 0,0
20.03.2019 23:00:00 4,1 -0,1 -0,6 10,2 10,4 0 0 9 5 N 1032,2 47 0 0,0
20.03.2019 22:00:00 5,5 0,7 1,0 10,2 10,4 3 2 6 3 W 1032,0 3,8 0 0,0
20.03.2019 21:00:00 7,4 0,4 1,8 10,2 10,4 2 1 11 6 SW 1031,9 60 0 0,0
20.03.2019 20:00:00 11,0 -0,2 3,4 10,1 10,4 10 5 16 9 N 1031,2 60 0 0,0
20.03.2019 19:00:00 12,5 0,2 9,2 10,0 10,4 9 5 26 14 NNE 1030,8 60 36 0,0
20.03.2019 18:00:00 14,8 0,2 16,8 9,9 10,4 17 9 27 15 NE 1030,2 60 60 0,0
20.03.2019 17:00:00 15,6 -0,2 20,7 9,7 10,4 16 9 27 15 N 1030,1 60 60 0,0
20.03.2019 16:00:00 15,9 0,4 21,2 9,6 10,4 16 9 31 17 NE 1030,4 47 60 0,0
20.03.2019 15:00:00 15,8 -0,9 22,6 9,3 10,4 15 8 31 17 NNW 1031,1 20 60 0,0
20.03.2019 14:00:00 15,2 -1,0 22,4 9,2 10,4 15 8 27 14 N 1031,6 60 60 0,0
20.03.2019 13:00:00 14,6 -1,1 20,2 9,0 10,4 13 7 26 14 N 1032,3 60 60 0,0
20.03.2019 12:00:00 13,8 0,4 19,5 9,0 10,4 14 8 27 15 NNE 1032,8 20 60 0,0
20.03.2019 11:00:00 12,6 1,0 17,8 9,0 10,4 12 7 25 14 NNE 1033,2 50 60 0,0
20.03.2019 10:00:00 9,9 2,5 14,9 9,2 10,4 4 2 11 6 NW 1033,4 58 60 0,0
20.03.2019 09:00:00 4,9 3,1 2,4 9,3 10,4 2 1 7 4 NW 1033,4 37 60 0,0
20.03.2019 08:00:00 0,1 -0,3 -5,4 9,4 10,4 4 2 7 4 SW 1033,1 14 37 0,0
20.03.2019 07:00:00 -2,3 -2,9 -5,5 9,6 10,4 2 1 4 2 SW 1032,7 12 0 0,0
20.03.2019 06:00:00 -1,9 -2,6 -5,2 9,7 10,4 0 0 6 3 N 1032,2 18 0 0,0
20.03.2019 05:00:00 -1,4 -2,2 -4,7 9,9 10,4 3 2 7 4 N 1032,1 35 0 0,0
20.03.2019 04:00:00 -0,7 -1,8 -4,0 10,0 10,4 2 1 5 3 S 1032,2 23 0 0,0
20.03.2019 03:00:00 0,3 -1,0 -3,2 10,1 10,4 0 0 7 4 N 1032,2 32 0 0,0
20.03.2019 02:00:00 1,2 -0,6 -2,5 10,2 10,4 3 2 11 6 WSW 1032,3 42 0 0,0
20.03.2019 01:00:00 2,7 0,6 -2,0 10,3 10,4 4 2 7 4 NW 1032,2 54 0 0,0
20.03.2019 00:00:00 3,0 0,4 -1,5 10,4 10,4 0 0 7 4 N 1032,3 20 0 0,0
19.03.2019 23:00:00 4,1 1,1 -0,9 10,5 10,4 5 3 9 5 W 1031,8 50 0 0,0
19.03.2019 22:00:00 4,8 1,6 0,0 10,6 10,4 5 3 8 4 SW 1031,1 9 0 0,0
19.03.2019 21:00:00 6,0 1,9 1,1 10,5 10,4 5 3 7 4 W 1030,5 50 0 0,0
19.03.2019 20:00:00 8,6 0,8 1,1 10,5 10,4 4 2 11 6 NNW 1029,8 60 0 0,0
19.03.2019 19:00:00 10,3 0,9 6,6 10,5 10,4 9 5 29 15 N 1029,1 60 2 0,0
19.03.2019 18:00:00 12,4 2,0 12,0 10,4 10,4 14 8 35 19 N 1028,4 60 30 0,0
19.03.2019 17:00:00 13,8 2,4 13,0 10,3 10,4 14 8 32 17 NNW 1027,9 60 42 0,0
19.03.2019 16:00:00 12,3 1,0 13,4 10,1 10,4 17 9 35 19 N 1028,0 60 46 0,0
19.03.2019 15:00:00 12,5 2,9 13,3 10,0 10,4 14 8 28 15 NNW 1028,1 59 15 0,0
19.03.2019 14:00:00 12,6 4,0 14,3 10,0 10,4 13 7 24 13 NNW 1028,4 60 38 0,0
19.03.2019 13:00:00 11,1 4,1 14,0 9,9 10,4 13 7 21 11 NNE 1028,9 60 11 0,0
19.03.2019 12:00:00 10,0 3,9 10,8 9,9 10,4 8 4 21 11 NNW 1029,1 60 0 0,0
19.03.2019 11:00:00 9,7 4,3 11,2 9,8 10,4 13 7 24 13 N 1028,7 57 12 0,0
19.03.2019 10:00:00 9,5 5,7 11,6 9,9 10,4 13 7 20 11 N 1028,5 58 52 0,0
19.03.2019 09:00:00 7,4 5,9 6,6 9,9 10,4 8 4 11 6 NW 1028,1 45 6 0,0
19.03.2019 08:00:00 6,2 5,5 5,8 10,0 10,4 6 3 11 6 W 1027,8 20 0 0,0
19.03.2019 07:00:00 6,0 5,4 5,5 10,0 10,4 7 4 11 6 NW 1027,3 40 0 0,0
19.03.2019 06:00:00 6,0 5,4 4,8 10,1 10,4 4 2 9 5 WSW 1027,0 40 0 0,0
19.03.2019 05:00:00 6,2 5,5 5,8 10,1 10,4 8 4 11 6 NW 1026,7 49 0 0,0
19.03.2019 04:00:00 6,4 5,8 5,7 10,1 10,4 7 4 10 5 WNW 1026,5 40 0 0,0
19.03.2019 03:00:00 6,3 5,6 5,7 10,2 10,4 6 3 8 5 W 1026,5 39 0 0,0
19.03.2019 02:00:00 6,5 5,6 5,9 10,2 10,4 5 3 11 6 WNW 1026,8 55 0 0,0
19.03.2019 01:00:00 6,7 5,5 6,1 10,2 10,4 3 1 15 8 NW 1027,0 12 0 1,0
19.03.2019 00:00:00 7,3 6,1 6,6 10,3 10,4 12 7 18 10 W 1027,2 10 0 0,6
18.03.2019 23:00:00 8,1 5,4 7,1 10,3 10,4 8 5 16 9 WNW 1027,0 40 0 0,0
18.03.2019 22:00:00 8,9 4,7 7,6 10,3 10,4 13 7 21 11 WNW 1027,0 48 0 0,0
18.03.2019 21:00:00 8,9 4,3 7,8 10,3 10,4 13 7 21 11 W 1026,8 48 0 0,0
18.03.2019 20:00:00 8,8 4,0 7,8 10,2 10,4 12 7 29 16 W 1026,5 57 0 0,0
18.03.2019 19:00:00 9,7 4,7 8,5 10,2 10,4 16 9 31 17 W 1026,2 54 0 0,0
18.03.2019 18:00:00 10,1 4,7 10,0 10,1 10,4 9 5 36 20 WSW 1025,9 60 0 0,0
18.03.2019 17:00:00 11,8 4,5 11,8 9,9 10,4 9 5 37 20 WNW 1025,7 58 0 0,0

tt = temperature
td = dewpoint
tt 5cm = temperature 5cm
tt -20cm = temperature -20cm
tt -100cm = temperature -100cm
ff = wind speed
fx = gusts
dd = wind direction
ppp = reduced air pressure
vv = visibility
sd = sunshine duration
rr = precipitation

Next stations